Theta_e
314 316 317 318 318 320 323 325 325 327 327 328 330 330 331 332 332 332 332 331 332 333 332 331 331 334 336 336 340 342 340 339 346 346 344 341 338 336 336 334 335 334 335 335
314 318 318 317 318 318 320 323 325 326 324 326 329 331 332 332 332 332 332 332 332 333 334 335 335 338 337 339 340 340 340 341 344 343 340 338 336 336 335 335 334 334 335 335
315 316 316 318 317 318 320 322 324 324 323 325 328 330 332 331 332 332 332 332 332 332 330 333 339 342 339 340 340 340 340 344 341 340 337 338 337 336 336 334 333 336 335 334
313 315 314 317 319 318 321 319 320 322 323 328 326 332 334 332 333 333 332 332 331 331 331 335 341 344 341 340 340 340 341 341 339 339 338 338 337 335 335 335 335 336 336 335
309 312 316 315 318 319 320 319 320 321 323 326 326 328 330 330 332 332 331 331 331 331 334 335 343 342 340 340 341 341 342 340 339 335 338 338 337 334 332 333 335 335 335 333
309 310 312 317 316 317 319 319 319 321 323 327 328 328 329 329 330 329 329 329 330 331 333 340 342 340 340 340 340 342 341 341 339 338 338 338 336 335 337 336 335 335 334 334
312 311 310 312 315 317 318 323 324 324 325 327 326 327 329 328 329 329 329 330 331 333 334 342 342 341 340 340 341 341 340 341 339 338 337 336 336 337 336 336 334 336 334 334
320 319 310 311 314 318 318 323 323 324 325 325 323 327 327 328 329 329 329 331 333 334 341 341 341 341 339 340 340 339 340 340 339 337 336 335 336 336 336 334 335 336 333 334
317 319 316 311 314 316 319 320 322 324 323 324 325 327 328 329 330 330 331 333 334 341 341 341 340 340 339 339 339 339 340 339 337 336 334 334 335 335 336 335 335 336 337 335
313 317 316 317 312 315 318 319 322 324 325 328 325 328 330 333 333 331 332 333 334 341 341 340 340 340 339 339 339 339 339 338 335 335 334 334 332 333 334 334 333 337 334 333
313 316 317 318 315 315 319 319 321 325 324 327 329 328 335 333 330 331 334 332 335 341 340 340 339 339 338 338 338 339 338 335 334 333 334 333 334 334 333 333 334 335 335 333
312 318 322 319 318 315 319 319 321 325 327 325 327 328 331 330 329 331 332 331 338 340 340 339 339 339 338 338 338 337 334 334 334 333 334 332 334 333 335 333 334 334 335 333
312 318 320 319 319 321 322 320 322 325 329 329 327 329 330 327 329 329 333 329 340 339 339 339 338 338 339 338 336 334 333 333 332 333 332 334 334 335 334 334 333 333 333 333
313 314 316 323 322 323 327 324 321 324 327 326 328 327 327 328 331 331 334 339 339 339 340 338 338 339 338 337 334 332 332 332 332 333 334 334 333 334 335 333 333 333 333 333
315 316 315 316 315 319 323 324 322 323 326 326 328 328 327 331 333 337 340 341 339 339 338 338 338 339 338 337 333 331 330 332 331 332 334 333 333 331 334 334 334 333 333 333
314 317 316 319 316 316 319 320 323 322 322 326 328 329 330 330 329 335 337 338 339 338 338 338 338 339 338 336 331 330 330 331 330 331 334 332 333 332 332 334 334 332 332 332
314 318 322 320 316 319 321 323 325 325 324 326 328 330 330 330 326 331 337 338 338 338 337 337 338 338 338 334 330 331 331 330 330 331 334 333 332 330 331 333 334 332 332 331
314 316 320 321 321 320 320 324 324 321 323 327 327 324 325 326 326 327 332 336 337 338 337 337 338 339 337 332 330 330 330 330 329 331 331 332 333 331 332 332 334 334 333 332
313 315 323 323 324 321 324 330 330 323 330 329 329 326 323 325 332 334 332 332 336 339 338 338 337 337 336 332 330 330 329 329 329 330 331 331 332 330 331 334 335 333 331 330
312 314 319 321 327 328 329 327 326 326 332 328 330 330 330 328 332 335 333 330 333 335 338 338 337 337 337 332 330 330 330 329 328 329 330 330 332 331 330 331 334 335 330 331
312 316 321 323 325 327 321 324 326 332 332 328 328 329 329 331 330 332 331 332 332 334 337 337 337 338 338 333 331 331 329 329 327 329 330 330 332 331 330 329 332 332 331 331
321 322 321 321 323 327 318 323 328 326 326 327 326 326 328 328 328 329 330 332 331 334 335 338 339 340 337 333 331 331 331 328 327 328 329 331 332 332 331 330 331 332 333 330
321 317 319 321 322 317 318 320 320 320 322 323 324 325 325 326 327 328 330 331 332 333 334 334 339 340 338 334 332 332 331 328 326 328 329 331 335 333 333 330 330 334 333 330
315 315 318 318 316 319 318 318 319 318 318 320 320 322 324 325 326 328 329 331 332 332 334 334 339 341 340 335 332 332 330 328 326 329 331 331 333 335 333 331 329 329 334 333
315 316 316 317 316 316 315 314 316 317 317 318 318 319 321 324 325 326 328 330 333 333 333 334 338 340 340 336 334 332 329 328 327 329 331 331 333 335 334 331 329 327 326 333
313 314 315 316 314 314 314 313 313 315 317 318 318 318 319 322 324 325 327 330 334 336 334 336 336 340 339 338 335 332 329 328 329 329 330 330 330 331 334 332 328 327 325 322
Wind_Speed
22 16 24 40 30 29 28 32 32 28 26 27 26 27 28 22 20 21 15 16 20 18 12 14 22 10 7 4 6 12 18 18 23 19 19 16 17 15 16 16 13 10 10 8
20 27 38 22 30 30 33 31 31 28 27 23 24 27 25 22 22 21 18 18 17 17 14 12 11 14 10 10 10 12 14 17 22 18 20 18 18 20 19 16 14 12 9 10
23 37 23 29 29 30 31 30 27 30 25 27 23 25 23 24 22 19 19 19 14 12 21 19 4 13 13 13 13 14 16 20 20 17 20 13 14 4 5 5 9 12 10 11
23 27 31 29 33 32 28 28 29 28 22 19 20 18 23 19 22 20 21 19 14 20 24 10 8 11 14 15 14 16 17 20 20 17 15 11 9 9 6 5 11 9 9 8
31 26 27 31 37 28 35 23 27 27 24 21 23 14 28 17 19 19 19 19 14 19 12 10 16 15 16 18 17 18 18 19 16 18 14 13 10 7 3 4 7 4 6 10
29 26 28 30 27 33 27 26 29 26 19 18 26 19 28 18 20 19 17 18 18 16 14 10 15 19 18 18 19 20 20 18 17 13 11 10 9 1 4 3 2 4 6 8
23 27 32 30 29 29 31 23 16 18 17 20 17 19 21 21 20 19 16 15 16 14 10 18 16 14 17 20 21 21 20 18 17 13 9 7 5 4 0 2 3 4 4 6
13 18 28 28 33 27 29 26 16 26 16 20 20 24 19 24 20 16 16 16 13 11 17 16 15 15 18 21 22 22 21 19 17 15 11 9 7 7 3 2 2 3 1 3
7 15 28 30 29 29 30 28 29 24 21 19 16 18 30 25 18 15 12 14 7 14 15 16 15 14 20 22 22 22 21 18 16 14 12 9 7 2 0 0 1 1 1 2
6 14 22 26 29 33 31 20 26 18 24 23 19 21 14 14 16 11 12 12 10 17 16 15 15 15 21 22 21 21 20 18 16 14 12 10 5 4 1 2 2 1 1 5
7 8 17 22 26 29 25 26 23 20 18 16 14 14 7 3 5 5 17 14 10 18 16 16 15 18 22 22 21 20 18 18 16 14 11 9 8 7 4 4 3 3 3 7
7 4 13 23 23 22 28 25 25 18 22 18 14 15 6 6 4 7 9 16 18 19 17 17 16 15 20 20 21 18 19 18 16 14 15 8 13 7 6 5 4 3 3 6
3 8 11 16 16 21 19 29 24 21 11 19 17 15 9 6 6 6 9 14 20 18 18 17 16 15 15 19 20 19 18 18 17 15 14 9 11 7 7 5 4 4 3 6
3 8 14 12 7 13 10 20 30 26 17 18 19 10 8 8 7 9 13 21 19 17 18 17 16 15 15 20 20 19 18 18 17 17 17 13 14 8 8 7 5 5 5 7
0 8 17 19 23 16 19 30 26 29 23 21 20 18 10 10 8 11 13 15 16 17 18 17 15 15 14 18 19 19 18 19 17 14 20 18 15 9 10 8 7 5 8 7
2 4 13 18 14 11 21 34 27 28 28 26 22 16 19 11 5 9 9 13 14 17 18 17 15 16 15 17 19 19 17 18 17 14 20 17 15 10 14 10 9 8 9 9
5 4 4 5 5 4 19 24 22 23 28 25 18 5 23 9 6 6 10 11 14 17 16 17 15 15 13 18 19 19 18 20 17 14 23 18 20 10 7 13 11 11 11 10
13 11 6 3 10 5 15 16 21 17 19 21 10 8 11 19 5 4 12 7 9 15 15 16 14 13 19 21 20 20 19 19 17 15 15 17 21 14 11 13 12 12 12 12
14 6 4 4 5 7 22 10 19 2 13 20 7 8 7 5 15 15 15 14 12 5 13 14 17 20 21 22 22 20 20 19 18 16 16 15 20 15 17 17 14 11 13 10
10 7 5 5 2 7 6 18 22 4 6 18 15 16 15 6 7 8 13 13 13 14 7 14 21 22 22 22 24 20 19 19 18 18 17 15 20 17 18 14 14 12 12 14
5 5 9 8 3 4 14 25 21 6 2 10 13 14 14 12 8 8 10 10 9 10 10 23 24 20 22 24 24 19 19 18 18 19 18 16 22 20 22 15 12 13 15 14
5 4 3 4 3 3 18 11 10 9 10 13 14 13 11 10 10 9 11 10 11 9 9 16 17 21 25 25 25 19 18 20 20 20 20 18 25 19 21 16 12 16 16 15
2 4 4 7 4 7 9 8 9 9 11 14 14 15 12 12 11 10 10 9 8 9 8 10 19 22 24 26 25 19 20 21 20 21 21 20 18 24 23 18 13 17 16 18
4 9 3 7 10 3 4 9 12 13 13 12 13 13 12 11 11 9 10 9 9 8 8 14 17 17 19 25 25 21 23 22 21 22 22 23 18 25 21 18 15 15 18 17
4 9 11 0 7 10 12 13 11 15 11 9 11 11 13 12 9 9 10 10 10 9 11 13 10 18 22 25 25 23 26 24 22 23 23 23 20 20 22 20 17 17 13 20
7 7 4 4 15 9 14 15 15 13 10 6 8 10 13 15 8 11 10 12 11 11 11 10 12 23 25 27 26 26 27 25 24 23 23 23 21 20 20 18 16 8 17 8
Wind_Direction
221 217 220 220 220 238 236 237 246 253 250 247 253 257 267 274 264 258 270 266 260 256 247 251 271 242 135 130 136 149 158 161 161 162 176 191 204 193 215 222 220 217 228 245
229 218 224 230 228 233 244 247 250 260 260 259 263 260 252 256 261 261 243 247 265 283 298 263 266 121 135 141 154 153 163 169 162 168 180 195 200 202 207 211 216 206 213 240
225 236 225 232 234 236 236 236 246 258 266 266 271 269 272 270 267 269 268 263 256 271 274 271 198 135 140 144 155 163 165 158 162 174 193 200 184 149 150 216 225 220 225 236
249 243 243 227 235 231 243 234 243 250 252 258 258 269 257 263 266 261 267 265 249 248 247 238 158 138 143 144 151 151 155 158 173 186 184 169 179 200 203 210 185 171 202 218
248 247 236 239 237 228 245 243 251 248 251 259 255 260 268 271 265 255 254 253 253 249 257 249 130 140 141 141 147 150 152 166 177 164 172 181 226 237 207 189 146 189 201 228
255 254 253 247 243 247 245 240 249 257 255 246 243 244 264 256 261 265 263 257 243 255 233 142 125 133 137 144 147 150 157 174 152 179 166 183 190 268 74 99 305 276 262 236
248 244 250 249 253 235 238 231 234 234 236 242 242 241 253 265 263 265 277 278 259 255 213 131 138 142 142 148 148 153 165 151 165 175 165 172 167 170 205 258 299 303 274 228
267 257 228 237 237 238 225 232 222 221 222 239 241 251 261 253 259 251 247 248 265 216 122 132 144 140 153 150 155 161 163 159 169 166 168 163 164 199 216 236 319 325 358 213
322 282 260 227 243 237 233 224 235 245 237 245 259 248 234 245 243 232 211 242 158 125 130 139 148 147 151 153 162 159 162 162 169 163 153 162 167 202 92 359 313 275 170 175
299 285 277 271 219 242 238 227 225 225 231 246 239 242 257 185 219 218 207 220 210 137 143 148 147 153 149 156 161 160 159 161 163 151 163 165 167 187 191 160 173 149 153 153
251 222 275 286 243 219 228 225 220 241 223 238 248 267 73 85 133 217 194 203 197 143 150 150 151 149 151 156 159 158 161 160 159 152 161 148 156 164 159 152 136 135 160 151
308 299 269 269 271 236 237 223 229 218 211 227 244 238 84 150 208 233 257 194 149 146 152 151 153 153 153 162 154 161 160 160 158 166 146 154 146 122 129 124 122 128 144 149
9 235 266 253 260 266 257 227 233 237 230 216 233 247 157 169 211 237 271 166 139 146 149 152 154 159 157 160 159 165 165 160 161 163 149 149 117 134 141 124 121 125 136 137
313 258 261 268 302 333 320 268 228 222 207 226 223 210 167 197 191 203 228 126 139 151 149 152 160 160 161 158 165 165 172 159 165 162 149 131 133 132 131 128 130 130 122 113
358 285 297 286 268 277 299 292 252 222 198 218 228 222 196 181 135 97 109 131 142 150 156 158 165 158 162 158 160 164 170 162 165 165 142 129 134 134 137 134 130 126 119 117
280 282 277 272 256 264 292 283 275 219 219 212 236 147 85 63 15 126 144 148 151 155 164 158 165 158 164 158 162 164 168 157 167 165 138 143 147 132 141 135 132 129 129 122
285 277 303 272 172 13 286 252 251 240 204 204 215 250 130 197 261 93 141 152 162 158 165 164 164 163 161 160 166 162 166 159 165 172 149 160 148 142 162 133 133 131 125 129
251 285 293 46 129 210 264 249 263 200 186 209 146 111 111 151 208 350 49 79 164 164 175 160 161 159 157 159 163 168 163 162 169 175 167 154 148 141 143 122 130 137 136 138
226 265 286 248 225 343 304 19 321 267 48 19 77 207 161 64 100 52 29 23 9 228 169 155 157 156 157 160 160 170 167 168 172 176 165 167 148 144 136 123 133 148 142 143
193 197 226 301 207 203 328 324 316 344 83 18 18 31 43 34 108 31 358 11 2 337 158 154 152 154 157 161 161 174 169 174 175 174 168 171 149 147 128 127 145 152 161 146
196 228 245 276 273 31 324 330 306 158 229 25 31 34 24 32 18 337 340 3 348 315 312 153 153 158 160 161 162 180 172 178 179 169 164 167 135 132 129 133 136 135 141 140
334 306 321 298 338 354 336 11 50 324 19 28 32 32 22 17 353 357 354 347 328 314 323 167 151 153 161 165 166 187 173 179 181 165 162 161 141 142 136 142 150 132 131 132
11 358 312 11 29 294 323 360 353 351 20 20 13 7 13 10 359 345 343 320 296 296 298 276 155 153 164 169 173 189 173 179 180 165 159 155 155 146 147 148 160 136 142 138
24 322 10 333 355 28 347 338 346 3 4 2 360 347 1 353 344 338 331 320 302 273 248 267 166 156 167 174 178 190 173 184 178 161 155 155 166 149 154 156 176 160 165 160
341 339 332 275 352 340 5 354 354 326 342 355 354 347 331 325 336 339 318 309 295 271 267 240 205 161 169 177 180 186 177 187 174 162 158 159 173 169 162 167 184 171 187 177
4 354 332 316 325 317 309 318 317 310 320 323 330 331 320 310 342 331 329 314 307 297 269 253 237 162 170 179 183 185 181 186 170 165 166 168 177 189 172 168 168 159 179 158